Simultaneous Nadir Overpasses (SNOs) Predictions

Prediction of SNOs between METOP-B and TERRA Satellite Orbit:

Table of predicted SNOs for the next 14.0 days since TLE Epoch: 7/20/2024
Index Date (METOP-B) Time (METOP-B) Lat,Lon (METOP-B) SZA (METOP-B ) Date (TERRA) Time (TERRA) Lat,Lon (TERRA) SZA (TERRA ) Distance(km) Time Diff (sec)
1 07/22/2024 15:11:50 -79.99, 151.02 119.66 07/22/2024 15:12:15 -79.98, 150.92 119.67 2.30 25
2 07/22/2024 16:02:25 80.15, -40.04 60.59 07/22/2024 16:01:31 80.15, -40.06 60.58 0.46 54
3 07/25/2024 05:42:14 -79.99, -66.63 119.12 07/25/2024 05:42:44 -79.99, -66.73 119.12 2.03 30
4 07/25/2024 06:32:50 80.12, 101.99 61.09 07/25/2024 06:32:01 80.12, 102.00 61.08 0.35 49
5 07/27/2024 20:12:40 -79.92, 75.05 118.64 07/27/2024 20:13:14 -79.92, 75.08 118.63 0.74 34
6 07/27/2024 21:03:13 80.13,-115.47 61.70 07/27/2024 21:02:29 80.12,-115.62 61.67 3.03 44
7 07/30/2024 10:43:02 -79.93,-142.49 118.01 07/30/2024 10:43:40 -79.92,-142.52 118.00 0.57 38
8 07/30/2024 11:33:38 80.05, 26.07 62.19 07/30/2024 11:32:57 80.06, 26.20 62.20 2.55 41
9 08/02/2024 01:13:26 -79.89, -0.41 117.40 08/02/2024 01:14:07 -79.90, -0.38 117.39 0.64 41



Historial Predications of SNOs between METOP-B and TERRA
